www.pogodaiklimat.ru

Погода и климат >> Архив погоды >> Ирак >> Ramadi


ПОГОДА в Ramadi

  • Прогноз погоды в Ramadi
  • Монитор погоды в Ramadi
  • Климат города

АРХИВ ПОГОДЫ в Ramadi

Время (UTC), дата Ветер
(напр.,м/с)
 
Видим.   Явления Облачность Т
(С)
Тd
(С)
f
(%)
Тe
(С)
Тes
(С)
Комфортность P
(гПа)
Po
(гПа)
Тmin
(С)
Tmax
(С)
R
(мм)
R24
(мм)
S
(см)
03 8.08 С 2 10 км ясно +28.0 +14.8 44 +30 +31 жарко 1001.2 1001.0
06 8.08 СЗ 3 10 км ясно +33.2 +18.1 41 +38 +47 очень
душно
1002.4 1002.0 +27.6
09 8.08 С 2 10 км ясно +39.0 +19.2 32 +44 +64 опасность
перегрева
1001.4 1001.0
12 8.08 С 2 10 км ясно +41.8 +17.4 24 +44 +56 опасность
перегрева
1000.1 1000.0
15 8.08 С 2 10 км ясно +40.8 +20.7 32 +47 +48 опасность
перегрева
998.9 999.0
18 8.08 СЗ 2 10 км ясно +35.9 +20.9 42 +43 +43 опасность
перегрева
1000.1 1000.0 +42.4
06 9.08 С 2 10 км ясно +33.4 +18.2 41 +38 +49 очень
душно
1002.3 1002.0 +28.6
09 9.08 С 2 10 км ясно +39.0 +19.0 31 +43 +63 опасность
перегрева
1002.1 1002.0
15 9.08 СЗ 3 10 км ясно +41.8 +16.5 23 +44 +44 опасность
перегрева
1000.3 1000.0
18 9.08 С 3 10 км ясно +36.9 +17.8 33 +41 +41 опасность
перегрева
1002.2 1002.0 +43.4
06 10.08 С 2 10 км ясно +32.8 +18.0 41 +37 +48 очень
душно
1005.0 1005.0 +28.0
09 10.08 С 2 10 км ясно +39.0 +17.7 29 +42 +62 опасность
перегрева
1004.3 1004.0
12 10.08 С 2 10 км ясно +43.4 +14.7 19 +44 +56 опасность
перегрева
1002.6 1003.0
15 10.08 С 2 10 км ясно +41.0 +15.3 22 +42 +43 опасность
перегрева
1001.8 1002.0
18 10.08 СЗ 3 10 км ясно +36.3 +15.4 29 +38 +38 очень
душно
1003.1 1003.0 +44.0
15 11.08 СЗ 2 10 км ясно +41.4 +14.7 21 +42 +43 опасность
перегрева
1001.6 1002.0
03 12.08 СЗ 2 10 км ясно +26.9 +12.0 40 +28 +29 жарко 1004.0 1004.0
06 12.08 СЗ 4 10 км ясно +33.6 +14.1 31 +35 +42 душно 1004.5 1005.0 +26.5
09 12.08 СЗ 5 10 км ясно +40.6 +14.6 22 +41 +52 опасность
перегрева
1004.7 1005.0
12 12.08 СЗ 2 10 км ясно +42.9 +17.2 23 +45 +57 опасность
перегрева
1003.0 1003.0
15 12.08 СЗ 3 10 км ясно +40.4 +14.5 22 +41 +42 опасность
перегрева
1001.9 1002.0
18 12.08 СЗ 2 10 км ясно +35.6 +17.4 34 +39 +39 очень
душно
1003.5 1004.0 +43.5
03 13.08 С 5 10 км ясно +28.3 +13.7 41 +30 +30 жарко 1002.5 1003.0
06 13.08 СЗ 4 10 км ясно +32.0 +13.9 33 +33 +40 жарко 1002.6 1003.0 +27.8
09 13.08 СЗ 5 10 км ясно +38.4 +16.8 28 +41 +51 опасность
перегрева
1001.2 1001.0
12 13.08 С 6 10 км ясно +40.8 +13.4 20 +41 +45 опасность
перегрева
999.3 999.0
18 13.08 СЗ 3 10 км ясно +36.1 +19.1 37 +41 +41 опасность
перегрева
997.7 998.0 +41.5
03 14.08 СЗ 4 10 км ясно +28.7 +14.1 41 +31 +31 жарко 999.7 1000.0
06 14.08 СЗ 4 10 км ясно +31.8 +16.0 39 +35 +42 очень
душно
1000.5 1001.0 +28.4
09 14.08 З 5 10 км ясно +38.8 +15.2 25 +40 +50 очень
душно
999.7 1000.0
12 14.08 З 3 10 км ясно +42.0 +15.7 22 +43 +53 опасность
перегрева
998.7 999.0
15 14.08 СЗ 3 10 км ясно +40.8 +18.5 28 +45 +45 опасность
перегрева
998.0 998.0
18 14.08 СЗ 2 10 км ясно +35.6 +21.2 43 +43 +43 опасность
перегрева
999.0 999.0 +42.6

 

Местоположение метеостанции Ramadi (Ирак): широта 33.45 долгота 43.32 высота над уровнем моря 48 м.

В архиве по умолчанию представлена погода в Ramadi за последнюю неделю. Архивные данные за месяц целиком и за предыдущие месяцы, начиная с января 2011 года, Вы можете получить, выбрав интересующий диапазон дат из раскрывающегося списка и нажав кнопку "Ввод!".


*Определитесь, кто Вы:
робот инопланетянин человек

Внимание! Время в таблицах - всемирное. Для получения местного времени необходимо прибавить поправку, которая в Ramadi равна 3 ч.

Смотрите также архив погоды в соседних городах и на ближайших метеорологических станциях:

Погода в Heet (Ирак) (45 км)
Погода в Baghdad (Ирак) (88 км)
Погода в Haditha (Ирак) (112 км)
Погода в Karbalaa (Ирак) (113 км)
Погода в Al-Khalis (Ирак) (120 км)
Погода в Tikrit (Ирак) (129 км)
Погода в Ayn Al-Tamar (Ирак) (130 км)
Погода в Hella (Ирак) (153 км)
Погода в Baiji (Ирак) (165 км)
Погода в Ana (Ирак) (170 км)

Пояснения к столбцам:

Ветер - указаны скорость ветра в м/с - средняя за 10 мин, порывы в срок и между сроками (в фигурных скобках) и направление, откуда дует ветер: С - северный, СВ - северо-восточный, В - восточный, ЮВ - юго-восточный, Ю - южный, ЮЗ - юго-западный, З - западный, СЗ - северо-западный.
Видимость - горизонтальная дальность видимости в метрах или километрах. При видимости от 1 до 10 км при отсутствии осадков обычно наблюдается дымка, при ухудшении видимости до 1 км и менее - туман. В сухую погоду видимость может ухудшаться дымом, пылью или мглою.
Явления - указаны атмосферные явления, наблюдавшиеся в срок или в последний час перед сроком; фигурными скобками обозначены явления, наблюдавшиеся между сроками (за 1-3 часа до срока); квадратными скобками обозначены град или гололедные отложения с указанием их диаметра в мм.
Облачность - указаны через наклонную черту общая и нижняя облачность в баллах и высота нижней границы облаков в метрах; квадратными скобками обозначены формы облаков: Ci - перистые, Cs - перисто-слоистые, Cc - перисто-кучевые, Ac - высококучевые, As - высокослоистые, Sc - слоисто-кучевые, Ns - слоисто-дождевые, Cu - кучевые, Cb - кучево-дождевые. Подробнее классификацию облаков см. в Атласе облаков (PDF).
T - Температура воздуха - температура, измеренная на высоте 2 м над землей.
Td - Температура точки росы - температура, при понижении до которой содержащийся в воздухе водяной пар достигнет насыщения.
f - Относительная влажность воздуха - влажноcть воздуха, измеренная на высоте 2 м над землей.
Te - Эффективная температура - температура, которую ощущает одетый по сезону человек в тени. Характеристика душности погоды. При расчете учитывается влияние влажности воздуха и скорости ветра на теплоощущения человека.
Tes - Эффективная температура на солнце - температура, которую ощущает человек, с поправкой на солнечный нагрев. Характеристика знойности погоды. Зависит от высоты солнца над горизонтом, облачности и скорости ветра. Ночью, в пасмурную погоду, а также при ветре 12 м/с и более поправка равна нулю.
P - Атмосферное давление - приведенное к уровню моря атмосферное давление.
Po - Атмосферное давление - измеренное на уровне метеостанции атмосферное давление.
Tmin - Минимальная температура - минимум температуры воздуха на высоте 2 м над землей.
Tmax - Максимальная температура - максимум температуры воздуха на высоте 2 м над землей.
R - Количество осадков - Количество выпавших осадков за период времени, мм. При наведении курсора мыши на число - период времени, за который выпало указанное количество осадков.
R24 - Количество осадков - Количество выпавших осадков за 24 часа, мм.
S - Снежный покров - Высота снежного покрова, см. При наведении курсора мыши на число - состояние снежного покрова и степень покрытия местности в баллах.